Regional Weather Roundup
Issued by NWS

Home | Current Version | Previous Version | Graphics & Text | Print | Product List | Glossary On
Versions: 1 2 3 4 5 6 7 8 9 10 11 12 13 14 15 16 17 18 19 20 21 22 23 24 25 26 27 28 29 30 31 32 33 34 35 36 37 38 39 40 41 42 43 44 45 46 47 48 49 50
000
ASUS45 KTFX 271819
RWRMT
MONTANA HOURLY WEATHER ROUNDUP
NATIONAL WEATHER SERVICE GREAT FALLS MT
1119 AM MST FRI FEB 27 2015

NOTE: "FAIR" INDICATES FEW OR NO CLOUDS BELOW 12000 FEET WITH NO
SIGNIFICANT WEATHER AND/OR OBSTRUCTIONS TO VISIBILITY.

* THESE STATIONS ARE NOT UNDER NWS QUALITY CONTROL. THEY DO NOT
   REPORT WEATHER SUCH AS PRECIPITATION OR FOG.

MTZ001>007-043-271900-
WEST OF THE DIVIDE
CITY           SKY/WX    TMP DP  RH WIND       PRES   REMARKS
KALISPELL      PTSUNNY   32  10  40 NE22      29.91F WCI  19
MISSOULA       CLOUDY    30  12  47 SE12      29.90S WCI  20
BUTTE          PTCLDY    19   9  65 CALM      29.82S
MULLAN PASS    PTSUNNY   23  18  81 E7        29.74R WCI  15
* ANACONDA     PTCLDY    23  10  57 N/A        N/A
* ESSEX        N/A       24   8  50 E4G19      N/A
* EUREKA APT   PTSUNNY   34  19  54 E3        29.96S
* HAMILTON APT PTSUNNY   30  18  61 N3        29.86S
* LIBBY APT    PTSUNNY   34  25  70 CALM      29.94R
* LINCOLN      N/A       15   5  64 NE3        N/A
* LOOKOUT PASS N/A       29  20  69 S6G12      N/A   WCI  23
* POLSON       N/A       32  18  56 N3         N/A
* RONAN APT    PTSUNNY   34  21  59 N6         N/A   WCI  29
* SEELEY LAKE  N/A       25   9  50 SW2        N/A
* THOMP F APT  PTCLDY    23  17  78 S4         N/A
$$

MTZ008-052>055-271900-
SOUTHWEST MONTANA
CITY           SKY/WX    TMP DP  RH WIND       PRES   REMARKS
BOZEMAN        SUNNY     19   9  65 CALM      29.91F
DILLON         PTCLDY    21  10  62 VRB3      29.82F
* W YELLOWSTON PTCLDY    18   3  52 S2         N/A
* THREE FORKS  PTCLDY    21  10  62 N/A        N/A
* TWIN BRIDGES PTCLDY    19   7  59 N/A        N/A
* BOULDER HILL N/A       11   4  73 N14        N/A   WCI  -5
* MONIDA PASS  N/A       22  14  71 SE3        N/A
* RAYNOLDS PAS N/A       11   2  67 SW9        N/A   WCI  -2
* WHITEHALL    N/A       20   9  62 SE4        N/A
* WISE RIVER   N/A       19   8  62 W3G31      N/A
$$

MTZ009>010-012-014-046-048-049-054-271900-
EAST SLOPES AND CENTRAL MONTANA
CITY           SKY/WX    TMP DP  RH WIND       PRES   REMARKS
CUT BANK       LGT SNOW  16   9  74 N18       30.01R
GREAT FALLS    LGT SNOW  14   9  80 NW8       30.00R VSB 1    WCI   3
HELENA         SUNNY     19   9  65 NW7       29.98S WCI  10
MALMSTROM AFB  LGT SNOW  14  10  84 W9        30.03R VSB 2    WCI   2
* CONRAD       PTSUNNY   16  10  77 W16G22     N/A   WCI   1
* DEARBORN     N/A       17   8  68 VRB4       N/A
* EAST GLACIER N/A       13   5  70 NE20G28    N/A   WCI  -5
* MONARCH      N/A       15   0  51 NW5        N/A   WCI   7
* PENDROY      N/A       14  10  84 N24G30     N/A   WCI  -5
* ROGERS PASS  N/A       14   7  73 S4G9       N/A
* SWEET GRASS  N/A       12   9  88 VRB16G21    N/A   WCI  -5
* WHITE SULPH  N/A       12   1  61 W4G9       N/A
$$

MTZ011-013-016-021-035-040-045-047-050-051-271900-
NORTH CENTRAL MONTANA
CITY           SKY/WX    TMP DP  RH WIND       PRES   REMARKS
HAVRE          PTCLDY    12   5  73 W6        30.07S WCI   2
LEWISTOWN      PTCLDY    12   1  61 W5        29.93R WCI   4
* N BAR RANCH  SUNNY     18   3  52 SE6       29.88S WCI  10
* CHINOOK      PTCLDY    12   1  61 W7        30.09S WCI   1
* FORT BENTON  PTCLDY    12   5  73 W7        30.09R WCI   1
* CHESTER      N/A       15   7  70 S5G10      N/A   WCI   7
* DENTON       N/A       11   1  64 NW7        N/A
* GEYSER       N/A       13   5  70 W20G26     N/A   WCI  -5
* JUDITH GAP   N/A        9   5  84 N7         N/A   WCI  -2
* LOMA         N/A       11   3  70 SW6        N/A   WCI   1
$$

MTZ017>020-022>027-061-062-271900-
NORTHEAST MONTANA
CITY           SKY/WX    TMP DP  RH WIND       PRES   REMARKS
GLASGOW        SUNNY     12   0  58 SE13      30.07F WCI  -3
GLENDIVE       SUNNY     21   5  50 S22G29    30.10F WCI   5
JORDAN         SUNNY     16   3  56 S10       30.04F WCI   4
SIDNEY         SUNNY     19 -11  25 S7        30.18F WCI  10
WOLF POINT     SUNNY     16   3  56 S5        30.13F WCI   8
* BEAVER HILL  N/A       19   2  47 SE16G22    N/A   WCI   4
* CIRCLE       N/A       18   8  65 S9G14      N/A   WCI   7
* LINDSAY DVD  N/A       14   4  64 SE18G25    N/A   WCI  -3
* NAVAJO       N/A       11   0  61 S10        N/A   WCI  -2
* PLENTYWOOD A SUNNY     10   0  64 SE8       30.12F WCI  -2
* POPLAR APT   SUNNY     18   3  52 S9        30.13F WCI   7
* SACO         N/A       12   0  58 SE3        N/A
* SCOBEY APT   SUNNY     12   0  58 S5         N/A   WCI   4
$$

MTZ028>042-056>058-271900-
SOUTHCENTRAL AND SOUTHEAST MONTANA
CITY           SKY/WX    TMP DP  RH WIND       PRES   REMARKS
BAKER          SUNNY     18   3  52 SE17      30.10F WCI   3
BILLINGS       PTSUNNY   18   7  62 VRB3      29.95F
LIVINGSTON     SUNNY     18   7  62 NW14      29.87S WCI   4
MILES CITY     SUNNY     18   7  62 S14       30.07F WCI   4
* BIG TIMBER A PTCLDY    14   5  67 W6        29.89F WCI   5
* FORSYTH APT  SUNNY     18   7  62 CALM      30.05F
* LAUREL APT   SUNNY     16   1  51 N/A        N/A
* ROUNDUP APT  SUNNY     18   3  52 SW5        N/A   WCI  11
* ALZADA       N/A        9   3  76 E6         N/A   WCI  -1
* HYSHAM       N/A       18   0  45 SE3        N/A
* LAME DEER    N/A       10   4  76 S13        N/A   WCI  -5
* REED POINT   N/A       18   8  65 W3         N/A
$$

REGIONAL REPORTS...DAKOTAS
CITY           SKY/WX    TMP DP  RH WIND       PRES   REMARKS
WILLISTON      SUNNY     12   0  58 S10       30.19F WCI  -1
DICKINSON      SUNNY     18   3  52 S17       30.15F WCI   3
BEACH          SUNNY     18   3  52 S18       30.12F WCI   2
CROSBY         SUNNY      9   0  66 S13       30.20F WCI  -7
TIOGA          SUNNY     10   0  64 S12       30.20F WCI  -5
WATFORD CITY   SUNNY     16   1  51 S13       30.17F WCI   2
BISMARCK       SUNNY     16   1  51 S13       30.35F WCI   2
GRAND FORKS    SUNNY     12   0  58 SW3       30.44S
FARGO          SUNNY      9   0  66 SW9       30.49S WCI  -4
BUFFALO SD     SUNNY     16   7  67 S15       30.05F WCI   1
RAPID CITY     SUNNY     16   7  67 S22       30.13F WCI  -2
$$

REGIONAL REPORTS...WYOMING/IDAHO/WASHINGTON
CITY           SKY/WX    TMP DP  RH WIND       PRES   REMARKS
GILLETTE       SUNNY     14   7  73 S24       29.95F WCI  -5
SHERIDAN       SUNNY      7   0  73 W3        29.95F
CODY           SUNNY     14   9  80 CALM      29.87R
YELLOWSTONE LA PTCLDY     7   0  73 VRB3      29.77S
SALMON         CLOUDY    28  25  89 CALM      29.81F
MULLAN PASS    PTSUNNY   23  18  81 E7        29.74S WCI  15
SAND POINT     SUNNY     41  25  53 N14G20    29.86F
SPOKANE        PTCLDY    37  28  70 E15       29.81S WCI  28
$$

REGIONAL REPORTS...ALBERTA
CITY           SKY/WX    TMP DP  RH WIND       PRES   REMARKS
CALGARY        PTSUNNY   18  10  71 N16       30.08R WCI   3
LETHBRIDGE     LGT SNOW  18  12  77 NW15      30.09R WCI   4
MEDICINE HAT   PTSUNNY   14   7  73 W6        30.11S WCI   5
EDMONTON       LGT SNOW  12   5  73 N12       30.19S WCI  -2
WATERTON GATE  N/A       19  10  68 E2         N/A
CARDSTON       N/A       14  12  92 NW10       N/A   WCI   1
MILK RIVER     N/A       14  10  84 N15        N/A   WCI  -1
$$

REGIONAL REPORTS...SASKATCHEWAN
CITY           SKY/WX    TMP DP  RH WIND       PRES   REMARKS
SWIFT CURRENT  PTSUNNY    9   0  66 W7        30.03S WCI  -2
MOOSE JAW      CLOUDY     9  -4  55 CALM      30.14S
REGINA         CLOUDY    -2  -8  75 SE12      30.15F WCI -20
VAL MARIE      N/A       12   1  61 S5         N/A   WCI   4
ASSINIBOIA     N/A        9  -8  45 S5         N/A
CORONACH       N/A       14   3  61 SE8        N/A   WCI   3

$$




USA.gov is the U.S. government's official web portal to all federal, state and local government web resources and services.